Stations météo

réclame
Mon MeteoGroup
Fehmarn, Allemagne (10055): Température de l'air & dewpoint: 14.11.2017 01:00:00 - 20.11.2017 01:00:00 (CET)Fehmarn, Allemagne (10055): Température de l'air 5cm & Température de l'air -5cm: 14.11.2017 01:00:00 - 20.11.2017 01:00:00 (CET)Fehmarn, Allemagne (10055): Température de l'air -20cm & Température de l'air -100cm: 14.11.2017 01:00:00 - 20.11.2017 01:00:00 (CET)Fehmarn, Allemagne (10055): Vitesse du vent & gusts: 14.11.2017 01:00:00 - 20.11.2017 01:00:00 (CET)Fehmarn, Allemagne (10055): Direction du vent: 14.11.2017 01:00:00 - 20.11.2017 01:00:00 (CET)Fehmarn, Allemagne (10055): reduced air pressure: 14.11.2017 01:00:00 - 20.11.2017 01:00:00 (CET)Fehmarn, Allemagne (10055): visibility: 14.11.2017 01:00:00 - 20.11.2017 01:00:00 (CET)Fehmarn, Allemagne (10055): Ensoleillement: 14.11.2017 01:00:00 - 20.11.2017 01:00:00 (CET)Fehmarn, Allemagne (10055): Quantités de précipitations: 14.11.2017 01:00:00 - 20.11.2017 01:00:00 (CET)
Date & Time tt [°C] td [°C] tt 5cm [°C] tt -5cm [°C] tt -20cm [°C] tt -100cm [°C] ff [km/h] ff [knt] fx [km/h] fx [knt] dd ppp [hPa] vv [km] sd [min] rr [mm]
20.11.2017 01:00:00 5,5 1,4 4,2 2,2 4,5 9,5 26 14 35 19 W 1011,3 51 0 0,0
20.11.2017 00:00:00 5,2 -0,5 3,9 1,7 4,6 9,5 30 16 38 21 NW 1011,5 70 0 0,0
19.11.2017 23:00:00 5,0 -0,1 3,7 1,7 4,8 9,5 30 16 43 23 NW 1011,0 59 0 0,0
19.11.2017 22:00:00 4,9 -0,1 3,8 2,0 4,9 9,5 38 20 50 27 NW 1010,8 53 0 0,0
19.11.2017 21:00:00 5,1 0,8 4,0 2,1 5,1 9,5 42 23 54 29 NW 1010,0 42 0 0,0
19.11.2017 20:00:00 5,0 0,6 3,9 2,2 5,3 9,5 44 24 59 32 NNW 1008,9 41 0 0,0
19.11.2017 19:00:00 5,0 -0,1 4,2 2,6 5,4 9,5 44 24 63 34 NNW 1008,2 35 0 0,0
19.11.2017 18:00:00 5,5 0,0 4,5 2,6 5,6 9,5 53 29 68 37 NNW 1006,9 42 0 0,0
19.11.2017 17:00:00 6,3 0,4 5,4 3,1 5,8 9,5 52 28 67 36 NW 1005,7 44 0 0,0
19.11.2017 16:00:00 6,6 0,8 5,7 3,6 5,9 9,5 51 28 66 36 NW 1005,1 46 22 0,0
19.11.2017 15:00:00 6,7 0,9 6,0 3,9 6,0 9,5 53 28 65 35 NW 1004,4 11 55 0,0
19.11.2017 14:00:00 6,6 0,7 6,2 4,3 6,1 9,5 48 26 61 33 NW 1003,8 10 59 0,0
19.11.2017 13:00:00 6,4 1,2 6,4 4,5 6,1 9,5 46 25 64 35 NW 1003,2 9 47 0,0
19.11.2017 12:00:00 6,3 1,8 6,6 5,3 6,0 9,5 47 26 61 33 NW 1002,9 15 53 0,0
19.11.2017 11:00:00 6,8 2,2 6,7 4,9 6,0 9,5 52 28 71 38 NW 1001,8 14 43 0,0
19.11.2017 10:00:00 7,7 2,7 7,1 5,1 6,0 9,6 56 30 71 39 NW 1000,6 14 21 0,0
19.11.2017 09:00:00 7,7 4,5 6,9 5,4 5,9 9,6 56 31 76 41 WNW 999,5 24 0 0,0
19.11.2017 08:00:00 7,7 4,9 6,5 5,5 5,8 9,6 48 26 78 42 W 999,4 20 0 0,1
19.11.2017 07:00:00 7,6 5,2 6,4 5,4 5,8 9,6 63 34 84 45 W 999,2 18 0 0,0
19.11.2017 06:00:00 7,1 4,3 5,8 4,8 5,8 9,6 58 32 75 41 W 1000,0 26 0 0,3
19.11.2017 05:00:00 6,7 4,6 5,5 5,0 5,7 9,6 49 26 69 38 W 1000,7 9 0 1,4
19.11.2017 04:00:00 6,5 4,5 5,3 4,8 5,7 9,6 50 27 63 34 W 1001,3 3,4 0 0,0
19.11.2017 03:00:00 6,6 3,3 5,5 4,3 5,8 9,6 53 29 67 36 W 1001,9 28 0 0,0
19.11.2017 02:00:00 6,6 3,7 5,4 4,6 5,7 9,6 48 26 79 43 W 1002,9 35 0 1,1
19.11.2017 01:00:00 6,1 4,4 5,0 4,4 5,8 9,6 47 25 62 33 WSW 1003,2 28 0 0,0
19.11.2017 00:00:00 5,8 3,5 4,8 3,9 5,9 9,6 45 25 68 37 WSW 1004,0 45 0 0,0
18.11.2017 23:00:00 6,9 3,5 6,2 4,7 5,9 9,6 52 28 65 35 W 1004,2 38 0 0,0
18.11.2017 22:00:00 6,6 3,9 5,7 4,6 5,9 9,6 52 28 63 34 W 1004,9 41 0 0,0
18.11.2017 21:00:00 7,0 4,4 6,0 5,0 5,9 9,6 48 26 67 36 W 1005,2 24 0 0,0
18.11.2017 20:00:00 6,9 3,7 5,7 4,8 5,9 9,6 46 25 67 36 W 1005,4 27 0 0,1
18.11.2017 19:00:00 7,4 3,7 6,8 4,7 5,9 9,6 49 26 62 34 W 1005,7 27 0 0,0
18.11.2017 18:00:00 7,0 3,5 6,0 4,4 6,0 9,6 48 26 62 34 W 1005,6 26 0 0,0
18.11.2017 17:00:00 7,0 2,9 6,0 4,2 6,0 9,6 46 25 57 31 W 1005,9 28 0 0,0
18.11.2017 16:00:00 6,9 3,4 5,6 4,7 6,1 9,6 47 26 60 32 W 1005,9 37 9 0,0
18.11.2017 15:00:00 5,1 3,3 4,0 4,1 6,1 9,6 34 19 63 34 WNW 1005,9 43 16 1,2
18.11.2017 14:00:00 6,3 4,1 5,2 4,9 6,2 9,7 49 26 65 35 W 1005,8 34 0 0,4
18.11.2017 13:00:00 6,4 3,5 5,1 5,3 6,2 9,7 49 27 63 34 W 1005,8 6 0 0,0
18.11.2017 12:00:00 6,7 3,5 5,3 5,1 6,1 9,7 40 22 66 35 W 1006,3 40 0 0,8
18.11.2017 11:00:00 6,1 4,0 5,1 5,2 6,2 9,7 58 31 72 39 WSW 1006,8 7 0 1,9
18.11.2017 10:00:00 6,6 4,4 5,8 5,5 6,1 9,7 44 24 68 37 WSW 1007,3 6 0 0,0
18.11.2017 09:00:00 7,1 4,2 6,6 5,2 6,1 9,7 41 22 64 35 WSW 1008,4 23 0 0,0
18.11.2017 08:00:00 6,9 4,0 6,3 4,9 6,1 9,7 41 22 62 33 WSW 1009,3 23 0 0,0
18.11.2017 07:00:00 6,8 3,8 6,2 4,8 6,1 9,7 38 20 58 31 SW 1010,3 27 0 0,0
18.11.2017 06:00:00 6,7 4,1 5,8 4,5 6,1 9,7 36 20 66 36 WSW 1011,5 24 0 0,0
18.11.2017 05:00:00 6,7 4,0 5,4 4,3 6,2 9,7 39 21 56 30 SW 1012,9 29 0 0,0
18.11.2017 04:00:00 6,9 4,3 5,6 4,4 6,3 9,7 36 20 55 30 WSW 1014,0 31 0 0,0
18.11.2017 03:00:00 6,6 4,4 5,4 4,4 6,4 9,7 33 18 51 28 SW 1015,4 30 0 0,1
18.11.2017 02:00:00 7,0 4,8 5,9 5,2 6,4 9,7 33 18 49 26 WSW 1016,5 15 0 0,1
18.11.2017 01:00:00 6,9 4,4 5,9 4,7 6,5 9,7 35 19 54 29 WSW 1017,4 36 0 0,0
18.11.2017 00:00:00 6,8 4,8 5,6 4,7 6,6 9,7 30 16 50 27 WSW 1018,1 27 0 0,0
17.11.2017 23:00:00 7,0 4,6 6,3 5,1 6,7 9,7 29 16 45 25 WSW 1018,8 33 0 0,0
17.11.2017 22:00:00 7,1 4,7 6,5 5,4 6,7 9,7 31 17 46 25 WSW 1019,4 31 0 0,0
17.11.2017 21:00:00 7,1 4,7 6,0 5,0 6,8 9,7 29 15 40 21 SW 1020,0 36 0 0,0
17.11.2017 20:00:00 7,5 4,8 6,7 5,6 6,9 9,7 27 15 41 22 WSW 1020,7 41 0 0,0
17.11.2017 19:00:00 7,9 4,7 7,0 5,7 6,9 9,7 28 15 39 21 WSW 1021,3 36 0 0,0
17.11.2017 18:00:00 7,9 4,8 6,7 5,2 7,0 9,7 21 11 43 23 SW 1021,7 39 0 0,0
17.11.2017 17:00:00 8,4 4,2 7,0 5,3 7,2 9,7 33 18 41 22 W 1021,8 45 0 0,0
17.11.2017 16:00:00 8,5 4,4 7,5 6,0 7,2 9,7 35 19 42 23 W 1022,1 40 32 0,0
17.11.2017 15:00:00 8,2 3,7 7,5 6,4 7,2 9,7 31 17 42 23 W 1022,5 53 32 0,0
17.11.2017 14:00:00 8,5 4,8 8,2 6,6 7,1 9,7 31 17 48 26 W 1022,9 14 44 0,0
17.11.2017 13:00:00 8,2 4,5 7,7 6,7 7,0 9,7 36 19 51 28 W 1023,2 43 51 0,0
17.11.2017 12:00:00 8,5 5,1 9,0 6,9 6,8 9,7 31 17 44 24 W 1023,4 13 58 0,0
17.11.2017 11:00:00 8,2 4,6 8,5 6,5 6,7 9,7 35 19 44 24 W 1023,6 11 60 0,0
17.11.2017 10:00:00 8,3 4,7 8,4 5,9 6,6 9,7 33 18 41 22 W 1023,2 24 60 0,0
17.11.2017 09:00:00 7,8 5,0 7,2 5,3 6,6 9,7 30 16 38 21 W 1023,0 30 19 0,0
17.11.2017 08:00:00 8,3 4,3 7,0 4,9 6,7 9,7 30 16 38 21 W 1022,6 24 0 0,0
17.11.2017 07:00:00 8,2 4,3 6,8 4,9 6,8 9,7 29 16 38 21 WNW 1022,2 24 0 0,0
17.11.2017 06:00:00 8,4 4,0 7,0 4,9 7,0 9,7 32 17 40 22 WNW 1021,7 26 0 0,0
17.11.2017 05:00:00 8,3 4,5 6,9 5,0 7,1 9,7 31 17 40 21 WNW 1021,3 22 0 0,0
17.11.2017 04:00:00 8,3 3,7 7,1 5,1 7,3 9,7 30 16 41 22 NW 1020,9 24 0 0,0
17.11.2017 03:00:00 8,4 4,6 7,4 5,7 7,5 9,7 33 18 45 25 NW 1020,6 21 0 0,0
17.11.2017 02:00:00 8,7 5,1 7,4 5,9 7,7 9,7 36 20 48 26 NW 1020,0 25 0 0,0
17.11.2017 01:00:00 8,7 6,2 7,3 6,5 7,8 9,7 36 20 50 27 NW 1019,3 33 0 0,0
17.11.2017 00:00:00 8,9 6,5 7,8 7,4 7,8 9,7 38 20 48 26 NW 1018,7 31 0 0,3
16.11.2017 23:00:00 9,1 8,4 8,5 7,9 7,8 9,7 25 13 38 21 SW 1017,4 3,2 0 0,0
16.11.2017 22:00:00 8,8 8,2 8,3 7,7 7,8 9,7 24 13 37 20 SW 1017,6 4,8 0 0,0
16.11.2017 21:00:00 8,7 8,2 8,1 7,7 7,7 9,7 24 13 39 21 SW 1017,7 2,9 0 0,2
16.11.2017 20:00:00 8,7 7,9 8,4 7,7 7,7 9,7 27 14 42 23 SW 1018,0 4,0 0 0,0
16.11.2017 19:00:00 8,6 7,7 8,4 7,7 7,7 9,7 21 11 37 20 SW 1018,3 6 0 0,0
16.11.2017 18:00:00 8,7 7,7 8,4 7,7 7,7 9,7 23 13 40 21 SW 1018,6 7 0 0,0
16.11.2017 17:00:00 8,9 7,9 8,5 7,8 7,7 9,7 16 9 28 15 SW 1019,2 6 0 0,0
16.11.2017 16:00:00 9,0 7,9 8,7 8,0 7,7 9,8 14 8 29 16 S 1019,2 7 0 0,0
16.11.2017 15:00:00 9,3 8,1 9,0 8,5 7,6 9,8 11 6 29 16 SSW 1020,0 9 0 0,0
16.11.2017 14:00:00 9,2 7,8 9,0 8,8 7,4 9,8 17 9 30 16 SSW 1020,5 8 0 0,0
16.11.2017 13:00:00 9,2 7,8 8,7 8,5 7,2 9,8 20 11 29 16 S 1020,9 9 0 0,0
16.11.2017 12:00:00 8,9 7,8 8,4 8,2 7,0 9,8 19 11 29 16 S 1021,6 7 0 0,0
16.11.2017 11:00:00 8,7 7,8 8,2 8,0 6,8 9,8 17 9 30 16 S 1022,3 4,9 0 0,0
16.11.2017 10:00:00 8,3 7,8 8,0 7,5 6,6 9,8 19 11 31 17 S 1022,5 4,3 0 0,0
16.11.2017 09:00:00 7,9 7,8 7,6 6,8 6,5 9,8 15 8 23 13 S 1022,8 2,4 0 0,0
16.11.2017 08:00:00 7,7 7,6 7,3 6,3 6,3 9,8 12 7 21 11 S 1023,0 2,5 0 0,1
16.11.2017 07:00:00 7,2 7,2 6,9 5,9 6,2 9,8 14 8 21 12 SSE 1022,9 3,1 0 0,0
16.11.2017 06:00:00 5,8 5,6 5,5 5,3 6,2 9,8 13 7 17 9 SSE 1023,3 2,5 0 0,0
16.11.2017 05:00:00 5,4 5,3 5,2 5,1 6,2 9,8 8 4 11 6 S 1023,4 5 0 0,0
16.11.2017 04:00:00 5,5 5,5 5,1 4,8 6,2 9,8 7 4 10 5 S 1024,0 5 0 0,0
16.11.2017 03:00:00 6,4 6,3 4,5 4,1 6,3 9,8 7 4 12 7 SSW 1024,3 5 0 0,0
16.11.2017 02:00:00 6,0 5,7 4,0 3,8 6,5 9,8 7 4 12 6 SSW 1024,4 2,6 0 0,0
16.11.2017 01:00:00 7,1 6,9 4,7 4,2 6,6 9,8 9 5 14 7 SW 1024,6 7 0 0,0
16.11.2017 00:00:00 7,3 7,0 5,6 4,6 6,8 9,8 9 5 12 7 SW 1024,9 6 0 0,0
15.11.2017 23:00:00 7,9 7,2 4,9 4,7 7,0 9,8 10 6 15 8 W 1024,8 23 0 0,0
15.11.2017 22:00:00 7,8 7,1 5,0 5,1 7,1 9,8 11 6 16 9 W 1024,8 25 0 0,0
15.11.2017 21:00:00 8,5 7,6 6,9 5,9 7,2 9,8 14 7 21 11 WNW 1024,5 30 0 0,0
15.11.2017 20:00:00 8,5 8,0 6,9 5,9 7,3 9,8 15 8 18 10 W 1024,3 27 0 0,0
15.11.2017 19:00:00 8,2 7,9 5,6 5,3 7,5 9,8 11 6 16 8 WSW 1024,0 11 0 0,0
15.11.2017 18:00:00 8,2 7,8 5,5 5,7 7,7 9,8 13 7 17 9 W 1023,7 17 0 0,0
15.11.2017 17:00:00 8,5 7,8 6,9 6,7 7,8 9,8 13 7 22 12 W 1023,5 23 0 0,0
15.11.2017 16:00:00 8,9 7,7 8,4 8,1 7,8 9,8 14 8 29 16 W 1023,3 41 0 0,0
15.11.2017 15:00:00 8,8 8,0 8,4 8,2 7,8 9,8 24 13 30 16 NW 1023,0 27 0 0,0
15.11.2017 14:00:00 8,9 8,2 8,7 8,6 7,7 9,8 16 9 26 14 W 1022,9 17 0 0,0
15.11.2017 13:00:00 8,4 7,7 8,4 8,7 7,5 9,9 18 10 25 13 W 1022,6 14 0 0,0
15.11.2017 12:00:00 8,7 8,2 8,7 8,7 7,3 9,9 16 9 22 12 WSW 1022,5 12 0 0,0
15.11.2017 11:00:00 8,8 8,3 8,8 8,5 7,1 9,9 12 6 19 10 WSW 1022,4 17 0 0,0
15.11.2017 10:00:00 8,4 8,1 8,2 7,6 7,0 9,9 11 6 21 12 SW 1022,1 13 0 0,0
15.11.2017 09:00:00 8,2 8,0 7,8 7,3 6,9 9,9 12 7 21 12 SW 1021,7 6 0 0,0
15.11.2017 08:00:00 8,1 7,8 7,7 7,0 6,8 9,9 14 8 26 14 WSW 1021,6 5 0 0,6
15.11.2017 07:00:00 8,0 7,7 7,5 6,9 6,8 9,9 18 10 37 20 WSW 1021,3 3,5 0 0,3
15.11.2017 06:00:00 8,0 7,4 7,6 6,8 6,7 9,9 21 11 32 17 SW 1020,8 7 0 0,0
15.11.2017 05:00:00 8,0 7,2 7,4 6,5 6,6 9,9 22 12 38 21 WSW 1020,6 9 0 0,0
15.11.2017 04:00:00 8,0 7,5 7,5 6,5 6,5 9,9 22 12 33 18 WSW 1020,7 9 0 0,0
15.11.2017 03:00:00 7,9 7,5 6,9 6,0 6,5 9,9 18 10 40 22 WSW 1020,7 7 0 0,0
15.11.2017 02:00:00 8,1 7,4 7,4 6,3 6,5 9,9 26 14 32 18 WSW 1020,8 10 0 0,0
15.11.2017 01:00:00 7,8 7,1 6,5 5,6 6,5 10,0 22 12 35 19 WSW 1020,4 12 0 0,0
15.11.2017 00:00:00 8,1 7,4 7,0 6,1 6,5 10,0 28 15 36 19 W 1020,5 10 0 0,0
14.11.2017 23:00:00 8,2 7,4 7,1 6,0 6,5 10,0 26 14 37 20 W 1019,7 10 0 0,0
14.11.2017 22:00:00 8,4 7,5 7,2 6,0 6,5 10,0 31 17 43 23 W 1019,5 13 0 0,0
14.11.2017 21:00:00 8,7 7,7 7,5 6,2 6,4 10,0 30 16 41 22 W 1019,0 12 0 0,0
14.11.2017 20:00:00 8,6 7,8 7,5 6,1 6,4 10,0 34 18 48 26 W 1018,3 12 0 0,0
14.11.2017 19:00:00 8,6 7,6 7,4 6,2 6,4 10,0 40 22 49 26 W 1017,4 16 0 0,0
14.11.2017 18:00:00 8,6 7,6 7,5 6,1 6,3 10,0 41 22 50 27 W 1016,8 18 0 0,0
14.11.2017 17:00:00 7,9 7,0 6,7 5,7 6,3 10,0 38 21 56 30 WSW 1016,1 21 0 0,0
14.11.2017 16:00:00 7,7 6,6 7,3 6,4 6,2 10,0 43 23 61 33 WSW 1015,5 20 0 0,0
14.11.2017 15:00:00 7,3 6,0 6,7 6,2 6,1 10,0 48 26 64 34 WSW 1015,3 8 0 0,0
14.11.2017 14:00:00 7,4 4,9 7,1 6,1 6,0 10,1 39 21 59 32 WSW 1014,9 27 0 0,0
14.11.2017 13:00:00 7,2 3,9 6,3 5,7 5,9 10,1 37 20 58 31 SW 1015,2 45 0 0,0
14.11.2017 12:00:00 6,5 3,6 5,4 5,4 5,8 10,1 32 17 51 27 SW 1015,8 23 0 0,4
14.11.2017 11:00:00 6,6 4,4 5,7 5,5 5,6 10,1 31 17 50 27 WSW 1016,7 27 0 0,1
14.11.2017 10:00:00 6,4 4,4 5,7 5,2 5,5 10,1 32 17 46 25 WSW 1017,0 24 0 0,1
14.11.2017 09:00:00 6,4 3,7 5,9 4,9 5,4 10,1 29 16 41 22 SW 1017,2 26 0 0,0
14.11.2017 08:00:00 6,4 3,7 5,8 4,4 5,4 10,1 23 13 41 22 SW 1017,4 33 0 0,0
14.11.2017 07:00:00 6,5 3,9 5,4 3,9 5,4 10,1 23 13 36 20 WSW 1017,5 49 0 0,0
14.11.2017 06:00:00 6,2 3,3 4,5 3,3 5,4 10,1 28 15 37 20 WSW 1017,5 47 0 0,0
14.11.2017 05:00:00 6,7 3,6 5,1 3,7 5,4 10,1 32 17 39 21 W 1017,6 48 0 0,0
14.11.2017 04:00:00 6,4 3,9 5,0 3,6 5,5 10,1 31 17 37 20 W 1017,9 39 0 0,0
14.11.2017 03:00:00 6,3 4,0 4,8 3,6 5,5 10,1 27 15 32 18 W 1018,0 40 0 0,0
14.11.2017 02:00:00 6,5 3,6 4,8 3,6 5,6 10,2 29 16 39 21 W 1018,0 50 0 0,0
14.11.2017 01:00:00 6,8 3,7 5,1 3,8 5,6 10,2 30 16 35 19 W 1018,2 54 0 0,0

tt = Température de l'air
td = dewpoint
tt 5cm = Température de l'air 5cm
tt -5cm = Température de l'air -5cm
tt -20cm = Température de l'air -20cm
tt -100cm = Température de l'air -100cm
ff = Vitesse du vent
fx = gusts
dd = Direction du vent
ppp = reduced air pressure
vv = visibility
sd = Ensoleillement
rr = Quantités de précipitations

stations d'obs. à proximité